Location: Lucerne Valley
(34.4439°N, 116.9669°E)
Time: 06:15:59
(UTC-08:00)

N. Korean satellite - Pass Details

Date: 07 October 2017
Orbit: 461 x 513 km, 97.2° (Epoch: 11 December)

Event Time Altitude Azimuth Distance (km) Brightness Sun altitude
Rises 03:24:03 0° 171° (S) 2,583 10.2 -8.2°
Reaches altitude 10° 03:26:08 10° 172° (S) 1,696 9.3 -8.6°
Maximum altitude 03:29:47 77° 258° (WSW) 511 6.8 -9.3°
Drops below altitude 10° 03:33:24 10° 346° (NNW) 1,678 9.5 -10.1°
Sets 03:35:27 0° 347° (NNW) 2,553 10.4 -10.5°
